User: anonymous   Login
Location: Theydon Bois
(51.6750°N, 0.1050°E)
Time: 21:51:46
(UTC+01:00)
Language:

Meteor 1-16 Rocket - Orbit

View from above orbital plane
View from above orbital plane
View from above satellite
View from above satellite

Ground track
Ground track

The orbit data is extracted from the following two-line orbital elements,

1 07210U 74011B   17290.49158789 -.00000119  00000-0 -68407-4 0  9995
2 07210  81.2339 287.7898 0081599  30.8161 329.7763 14.13043679247242
Epoch (UTC): 17 October 2017 11:47:53
Eccentricity: 0.0081599
inclination: 81.2339°
perigee height: 790 km
apogee height: 908 km
right ascension of ascending node: 287.7898°
argument of perigee: 30.8161°
revolutions per day: 14.13043679
mean anomaly at epoch: 329.7763°
orbit number at epoch: 24724

The dashed part of the orbit path shows where the satellite is in the earth's shadow,  

DLR